星链-32673 (STARLINK-32673)

导读

STARLINK-32673是美国太空探索技术公司(SpaceX)星链互联网星座中的一颗卫星,于2025年2月11日发射入轨。作为星链计划的组成部分,它旨在为全球尤其是偏远地区提供高速低延迟的宽带互联网服务,进一步扩充星链星座的网络覆盖容量与服务稳定性,推动全球互联网络基础设施建设。

Basic Information
目录编号:
63000
目录名称:
STARLINK-32673
国际标识:
2025-031V
轨道中心:
EARTH
卫星名称:
星链-32673
卫星全名:
星链-32673 (STARLINK-32673)
卫星状态:
在轨 (已飞行570 天)
发射日期:
2025-02-11 UTC
国别 :
美国 (US)
星等 :
--
Orbit Information
数据来源 国际轨道数据
星历时间: 2026-09-03T17:45:59+0800
1天前
查看轨道信息
半长轴: 6861.132km
偏心率: 0.0001495
轨道倾角: 42.999°
近地点辐角 269.502°
升交点赤经 219.778°
平近点角 90.566°
近地点: 481.969km
远地点: 484.021km
周期: 94.266分钟
每日圈数: 15.275983
Detailed Information
固有亮度:
5
最大亮度:
2.5
卫星平台:
Starlink V1.0
覆盖范围:
全球
运营商:
太空探索技术公司
运营商所在国:
美国
制造商(研发单位):
太空探索技术公司
制造商所在国:
美国
使用方式:
暂无
Satellite Introduction
Starlink 计划是 SpaceX 推出的全球卫星互联网项目,通过发射低轨道卫星,为全球尤其是偏远地区提供高速、低延迟的互联网服务。自 2019 年起,Starlink 已部署数千颗卫星,旨在缩小全球数字鸿沟,推动互联网普及。该项目还为军事、航空等行业提供通信支持,带来广泛经济效益。
2D Orbit Map
3D Orbit Map
Orbit Altitude Analysis Chart
Orbit Inclination Analysis Chart
Orbit Comprehensive Analysis Chart
View Comprehensive Chart
Conjunction Data List
Event ID Objects TCA Miss Dist (km) Collision Risk Probability Collision Risk Index (CRI) Action
CDM_260906-224505-862606-300021
2026-09-06T
22:45:52+0000
0.672 km
远距离
5.564892E-5 中风险 0.7
CDM_260906-123305-862606-300021
2026-09-06T
12:33:52+0000
0.880 km
远距离
2.34081E-5 中风险 0.62
CDM_260906-140805-862606-300021
2026-09-06T
14:08:01+0000
1.422 km
极远距离
4.555678E-6 低风险 0.48
CDM_260903-052605-386706-300021
2026-09-03T
05:26:53+0000
1.841 km
极远距离
1.720002E-6 低风险 0.4
CDM_260907-002005-862606-300021
2026-09-07T
00:20:01+0000
2.239 km
极远距离
1.327187E-6 低风险 0.37
CDM_260906-211105-862606-300021
2026-09-06T
21:11:43+0000
2.917 km
极远距离
8.686134E-7 极低风险 0.34